Weather History for PATA - February, 2014

Change the Weather History Date:

Monday, February 17, 2014

  Actual Average Record
Temperature  
Mean Temperature -14 °F -  
Max Temperature 0 °F 2 °F 37 °F (2015)
Min Temperature -27 °F -16 °F -54 °F (1972)
Degree Days  
Heating Degree Days 78    
Moisture  
Dew Point -22 °F    
Average Humidity 70    
Maximum Humidity 86    
Minimum Humidity 54    
Precipitation  
Precipitation 0.00 in - - ()
Snow  
Snow 0.00 in - - ()
Snow Depth 14.00 in    
Sea Level Pressure  
Sea Level Pressure 29.45 in    
Wind  
Wind Speed 4 mph (NE)    
Max Wind Speed 12 mph    
Max Gust Speed -    
Visibility 10 miles    
Events      
Averages and records for this station are not official NWS values.
T = Trace of Precipitation, MM = Missing Value Source: NWS Daily Summary

Daily Weather History Graph

Daily Weather History Graph

Search for Another Location

Airport or City:

Trip Planner

Search our weather history database for the weather conditions in past years. The results will help you decide how hot, cold, wet, or windy it might be!

Date:

Astronomy

Feb. 17, 2014 Rise Set
Actual Time 9:01 AM AKST 5:45 PM AKST
Civil Twilight 8:08 AM AKST 6:37 PM AKST
Nautical Twilight 7:10 AM AKST 7:35 PM AKST
Astronomical Twilight 6:13 AM AKST 8:33 PM AKST
Moon 10:17 PM AKST (2/17) 8:51 AM AKST (2/17)
Length of Visible Light 10h 29m
Length of Day
8h 44m
Waning Gibbous, 92% of the Moon is Illuminated
Feb 17
Waning Gibbous
Feb 22
Last Quarter
Feb 28
New
Mar 8
First Quarter
Mar 16
Full

Hourly Weather History & Observations

Time (AKST) Temp. Windchill Dew Point Humidity Pressure Visibility Wind Dir Wind Speed Gust Speed Precip Events Conditions
12:52 AM -24.0 °F -35.2 °F -29.0 °F 77% 29.38 in 10.0 mi NNE 3.5 mph - N/A   Clear
1:52 AM -23.1 °F -40.7 °F -27.9 °F 78% 29.39 in 10.0 mi North 6.9 mph - N/A   Mostly Cloudy
2:52 AM -18.9 °F -34.0 °F -24.0 °F 78% 29.38 in 10.0 mi North 5.8 mph - N/A   Mostly Cloudy
3:52 AM -24.0 °F -35.2 °F -29.0 °F 77% 29.39 in 10.0 mi North 3.5 mph - N/A   Clear
4:52 AM -24.0 °F -37.9 °F -29.0 °F 77% 29.40 in 10.0 mi NNW 4.6 mph - N/A   Clear
5:52 AM -25.1 °F -41.3 °F -31.0 °F 74% 29.41 in 10.0 mi NNE 5.8 mph - N/A   Clear
6:52 AM -25.1 °F -43.1 °F -29.9 °F 78% 29.41 in 10.0 mi NE 6.9 mph - N/A   Clear
7:52 AM -20.9 °F -36.4 °F -26.0 °F 77% 29.41 in 10.0 mi North 5.8 mph - N/A   Clear
8:52 AM -27.9 °F -39.8 °F -32.1 °F 81% 29.42 in 10.0 mi Variable 3.5 mph - N/A   Partly Cloudy
9:52 AM -26.0 °F - -31.0 °F 77% 29.44 in 10.0 mi Calm Calm - N/A   Partly Cloudy
10:52 AM -20.9 °F - -24.0 °F 86% 29.44 in 10.0 mi Calm Calm - N/A   Partly Cloudy
11:52 AM -13.0 °F - -18.9 °F 75% 29.46 in 10.0 mi Calm Calm - N/A   Partly Cloudy
12:52 PM -6.0 °F - -15.0 °F 65% 29.45 in 10.0 mi Calm Calm - N/A   Partly Cloudy
1:52 PM -2.0 °F -12.2 °F -14.1 °F 57% 29.45 in 10.0 mi ENE 4.6 mph - N/A   Clear
2:52 PM -0.9 °F -11.0 °F -14.1 °F 54% 29.45 in 10.0 mi ENE 4.6 mph - N/A   Clear
3:52 PM -0.9 °F - -14.1 °F 54% 29.45 in 10.0 mi Calm Calm - N/A   Clear
4:52 PM -2.9 °F -15.0 °F -16.1 °F 54% 29.47 in 10.0 mi ENE 5.8 mph - N/A   Partly Cloudy
5:52 PM -6.0 °F - -16.1 °F 62% 29.48 in 10.0 mi Calm Calm - N/A   Partly Cloudy
6:52 PM -5.1 °F -20.4 °F -16.1 °F 59% 29.49 in 10.0 mi SE 8.1 mph - N/A   Clear
7:52 PM -4.0 °F -22.1 °F -15.0 °F 59% 29.50 in 10.0 mi SE 11.5 mph - N/A   Clear
8:52 PM -11.0 °F -26.2 °F -17.0 °F 75% 29.52 in 10.0 mi SSE 6.9 mph - N/A   Clear
9:52 PM -13.0 °F - -18.9 °F 75% 29.53 in 10.0 mi Calm Calm - N/A   Clear
10:52 PM -20.0 °F -37.1 °F -25.1 °F 78% 29.55 in 10.0 mi NNW 6.9 mph - N/A   Clear
11:52 PM -8.0 °F -21.0 °F -17.0 °F 65% 29.56 in 10.0 mi Variable 5.8 mph - N/A   Clear